Time,TemperatureF,DewpointF,PressureIn,WindDirection,WindDirectionDegrees,WindSpeedMPH,WindSpeedGustMPH,Humidity,HourlyPrecipIn,Conditions,Clouds,dailyrainin,SoftwareType,DateUTC
2013-03-27 00:01:00,34.9,19.8,30.24,NNW,338,1.2,2.0,54,0.00,,,0.00,WSDL version 423,2013-03-27 05:01:00,
2013-03-27 00:03:00,34.9,19.8,30.24,NNW,338,1.4,2.0,53,0.00,,,0.00,WSDL version 423,2013-03-27 05:03:00,
2013-03-27 00:04:00,34.9,19.8,30.24,NNW,338,1.3,2.2,53,0.00,,,0.00,WSDL version 423,2013-03-27 05:04:00,
2013-03-27 00:05:00,34.9,19.7,30.24,NNW,338,1.5,2.2,53,0.00,,,0.00,WSDL version 423,2013-03-27 05:05:00,
2013-03-27 00:07:00,34.9,19.6,30.24,NNW,338,1.3,2.2,53,0.00,,,0.00,WSDL version 423,2013-03-27 05:07:00,
2013-03-27 00:11:00,34.9,19.6,30.24,NNW,338,1.5,2.2,53,0.00,,,0.00,WSDL version 423,2013-03-27 05:11:00,
2013-03-27 00:14:00,34.9,19.6,30.24,NNW,338,1.4,2.0,53,0.00,,,0.00,WSDL version 423,2013-03-27 05:14:00,
2013-03-27 00:16:00,34.9,19.7,30.27,NNW,338,1.2,2.0,54,0.00,,,0.00,WSDL version 423,2013-03-27 05:16:00,
2013-03-27 00:17:00,34.9,19.8,30.27,NNW,338,1.2,2.0,54,0.00,,,0.00,WSDL version 423,2013-03-27 05:17:00,
2013-03-27 00:19:00,34.9,20.0,30.27,NNW,338,0.6,2.0,54,0.00,,,0.00,WSDL version 423,2013-03-27 05:19:00,
2013-03-27 00:23:00,34.9,20.4,30.27,NNW,338,1.2,1.6,55,0.00,,,0.00,WSDL version 423,2013-03-27 05:23:00,
2013-03-27 00:25:00,34.9,20.4,30.27,NNW,338,1.3,1.6,55,0.00,,,0.00,WSDL version 423,2013-03-27 05:25:00,
2013-03-27 00:26:00,34.9,20.4,30.27,NNW,338,1.3,1.6,55,0.00,,,0.00,WSDL version 423,2013-03-27 05:26:00,
2013-03-27 00:30:00,34.7,20.3,30.27,NNW,338,1.1,1.6,55,0.00,,,0.00,WSDL version 423,2013-03-27 05:30:00,
2013-03-27 00:31:00,34.7,20.3,30.24,NNW,338,1.0,1.6,55,0.00,,,0.00,WSDL version 423,2013-03-27 05:31:00,
2013-03-27 00:37:00,34.7,20.2,30.24,NNW,338,1.0,1.3,55,0.00,,,0.00,WSDL version 423,2013-03-27 05:37:00,
2013-03-27 00:40:00,34.7,20.3,30.24,NNW,338,1.1,1.6,56,0.00,,,0.00,WSDL version 423,2013-03-27 05:40:00,
2013-03-27 00:43:00,34.7,20.6,30.24,NNW,338,0.0,1.6,56,0.00,,,0.00,WSDL version 423,2013-03-27 05:43:00,
2013-03-27 00:45:00,34.6,20.5,30.24,NNW,338,0.0,1.6,55,0.00,,,0.00,WSDL version 423,2013-03-27 05:45:00,
2013-03-27 00:47:00,34.5,20.2,30.24,NNW,338,0.0,1.6,55,0.00,,,0.00,WSDL version 423,2013-03-27 05:47:00,
2013-03-27 00:50:00,34.3,19.9,30.24,NNW,338,1.3,2.0,55,0.00,,,0.00,WSDL version 423,2013-03-27 05:50:00,
2013-03-27 00:52:00,34.1,19.7,30.24,NNW,338,1.2,2.0,55,0.00,,,0.00,WSDL version 423,2013-03-27 05:52:00,
2013-03-27 00:53:00,34.1,19.7,30.24,NNW,338,1.0,2.0,55,0.00,,,0.00,WSDL version 423,2013-03-27 05:53:00,
2013-03-27 00:57:00,33.7,19.5,30.24,NNW,338,0.0,2.0,56,0.00,,,0.00,WSDL version 423,2013-03-27 05:57:00,
2013-03-27 01:02:00,33.5,19.5,30.27,NNW,338,0.0,1.3,56,0.00,,,0.00,WSDL version 423,2013-03-27 06:02:00,
2013-03-27 01:03:00,33.4,19.4,30.27,NNW,338,0.0,1.3,56,0.00,,,0.00,WSDL version 423,2013-03-27 06:03:00,
2013-03-27 01:07:00,33.0,19.0,30.27,NNW,338,0.0,1.3,56,0.00,,,0.00,WSDL version 423,2013-03-27 06:07:00,
2013-03-27 01:12:00,32.7,19.1,30.27,NNW,338,0.0,0.0,57,0.00,,,0.00,WSDL version 423,2013-03-27 06:12:00,
2013-03-27 01:17:00,32.6,19.0,30.24,NNW,338,0.0,0.0,57,0.00,,,0.00,WSDL version 423,2013-03-27 06:17:00,
2013-03-27 01:18:00,32.5,18.9,30.24,NNW,338,0.0,0.0,57,0.00,,,0.00,WSDL version 423,2013-03-27 06:18:00,
2013-03-27 01:23:00,32.2,18.7,30.24,NNW,338,0.0,0.0,57,0.00,,,0.00,WSDL version 423,2013-03-27 06:23:00,
2013-03-27 01:24:00,32.2,18.7,30.24,NNW,338,0.0,0.0,58,0.00,,,0.00,WSDL version 423,2013-03-27 06:24:00,
2013-03-27 01:27:00,32.2,18.9,30.24,NNW,338,1.0,1.3,58,0.00,,,0.00,WSDL version 423,2013-03-27 06:27:00,
2013-03-27 01:28:00,32.2,19.0,30.24,NNW,338,0.9,1.3,58,0.00,,,0.00,WSDL version 423,2013-03-27 06:28:00,
2013-03-27 01:30:00,32.2,19.0,30.24,NNW,338,0.8,1.3,58,0.00,,,0.00,WSDL version 423,2013-03-27 06:30:00,
2013-03-27 01:36:00,32.2,19.0,30.27,NNW,338,0.6,1.6,58,0.00,,,0.00,WSDL version 423,2013-03-27 06:36:00,
2013-03-27 01:38:00,32.2,19.0,30.27,NNW,338,0.0,1.6,58,0.00,,,0.00,WSDL version 423,2013-03-27 06:38:00,
2013-03-27 01:40:00,32.2,19.1,30.27,NNW,338,0.1,1.6,59,0.00,,,0.00,WSDL version 423,2013-03-27 06:40:00,
2013-03-27 01:41:00,32.2,19.2,30.27,NNW,338,0.6,1.6,59,0.00,,,0.00,WSDL version 423,2013-03-27 06:41:00,
2013-03-27 01:47:00,32.2,19.4,30.27,NNW,338,0.1,1.6,59,0.00,,,0.00,WSDL version 423,2013-03-27 06:47:00,
2013-03-27 01:48:00,32.3,19.5,30.27,NNW,338,0.5,1.6,59,0.00,,,0.00,WSDL version 423,2013-03-27 06:48:00,
2013-03-27 01:50:00,32.3,19.5,30.27,NNW,338,1.0,1.6,59,0.00,,,0.00,WSDL version 423,2013-03-27 06:50:00,
2013-03-27 01:52:00,32.3,19.5,30.27,NNW,338,1.0,1.6,59,0.00,,,0.00,WSDL version 423,2013-03-27 06:52:00,
2013-03-27 01:53:00,32.4,19.6,30.27,NNW,338,1.0,1.6,59,0.00,,,0.00,WSDL version 423,2013-03-27 06:53:00,
2013-03-27 01:57:00,32.5,19.7,30.27,NNW,338,0.4,1.6,59,0.00,,,0.00,WSDL version 423,2013-03-27 06:57:00,
2013-03-27 01:59:00,32.5,19.7,30.27,NNW,338,0.0,1.6,59,0.00,,,0.00,WSDL version 423,2013-03-27 06:59:00,
2013-03-27 02:02:00,32.3,19.5,30.24,NNW,338,0.0,1.6,59,0.00,,,0.00,WSDL version 423,2013-03-27 07:02:00,
2013-03-27 02:04:00,32.2,19.7,30.24,NNW,338,0.0,1.1,59,0.00,,,0.00,WSDL version 423,2013-03-27 07:04:00,
2013-03-27 02:07:00,31.9,20.6,30.24,NNW,338,0.0,0.0,59,0.00,,,0.00,WSDL version 423,2013-03-27 07:07:00,
2013-03-27 02:09:00,31.8,20.5,30.24,NNW,338,0.0,0.0,59,0.00,,,0.00,WSDL version 423,2013-03-27 07:09:00,
2013-03-27 02:13:00,31.6,20.3,30.24,NNW,338,0.0,0.0,59,0.00,,,0.00,WSDL version 423,2013-03-27 07:13:00,
2013-03-27 02:15:00,31.5,20.2,30.24,NNW,338,0.0,0.0,59,0.00,,,0.00,WSDL version 423,2013-03-27 07:15:00,
2013-03-27 02:18:00,31.3,20.2,30.24,NNW,338,0.0,0.0,60,0.00,,,0.00,WSDL version 423,2013-03-27 07:18:00,
2013-03-27 02:20:00,31.2,20.2,30.24,NNW,338,0.0,0.0,60,0.00,,,0.00,WSDL version 423,2013-03-27 07:20:00,
2013-03-27 02:25:00,30.9,20.0,30.24,NNW,338,0.0,0.0,60,0.00,,,0.00,WSDL version 423,2013-03-27 07:25:00,
2013-03-27 02:27:00,30.9,20.0,30.24,NNW,338,0.0,0.0,61,0.00,,,0.00,WSDL version 423,2013-03-27 07:27:00,
2013-03-27 02:28:00,30.9,20.0,30.24,NNW,338,0.0,0.0,61,0.00,,,0.00,WSDL version 423,2013-03-27 07:28:00,
2013-03-27 02:30:00,30.8,20.0,30.24,NNW,338,0.0,0.0,61,0.00,,,0.00,WSDL version 423,2013-03-27 07:30:00,
2013-03-27 02:35:00,30.7,20.1,30.24,NNW,338,0.6,1.3,61,0.00,,,0.00,WSDL version 423,2013-03-27 07:35:00,
2013-03-27 02:37:00,30.8,20.1,30.24,NNW,338,1.1,1.3,61,0.00,,,0.00,WSDL version 423,2013-03-27 07:37:00,
2013-03-27 02:40:00,31.0,20.3,30.24,NNW,338,1.2,1.3,61,0.00,,,0.00,WSDL version 423,2013-03-27 07:40:00,
2013-03-27 02:44:00,31.1,20.4,30.24,NNW,338,0.4,1.3,61,0.00,,,0.00,WSDL version 423,2013-03-27 07:44:00,
2013-03-27 02:45:00,31.1,20.4,30.24,NNW,338,0.0,1.3,61,0.00,,,0.00,WSDL version 423,2013-03-27 07:45:00,
2013-03-27 02:52:00,31.1,20.7,30.24,NNW,338,0.0,0.9,62,0.00,,,0.00,WSDL version 423,2013-03-27 07:52:00,
2013-03-27 02:53:00,31.2,20.8,30.24,NNW,338,0.0,0.9,62,0.00,,,0.00,WSDL version 423,2013-03-27 07:53:00,
2013-03-27 02:54:00,31.2,20.8,30.24,NNW,338,0.0,0.9,62,0.00,,,0.00,WSDL version 423,2013-03-27 07:54:00,
2013-03-27 02:57:00,31.3,20.9,30.24,NNW,338,0.0,0.0,62,0.00,,,0.00,WSDL version 423,2013-03-27 07:57:00,
2013-03-27 02:59:00,31.2,20.8,30.24,NNW,338,0.0,0.0,62,0.00,,,0.00,WSDL version 423,2013-03-27 07:59:00,
2013-03-27 03:00:00,31.2,20.8,30.24,NNW,338,0.0,0.0,62,0.00,,,0.00,WSDL version 423,2013-03-27 08:00:00,
2013-03-27 03:01:00,31.1,20.8,30.24,NNW,338,0.0,0.0,62,0.00,,,0.00,WSDL version 423,2013-03-27 08:01:00,
2013-03-27 03:06:00,31.1,20.7,30.24,NNW,338,0.0,0.0,62,0.00,,,0.00,WSDL version 423,2013-03-27 08:06:00,
2013-03-27 03:08:00,31.0,20.6,30.24,NNW,338,0.0,0.0,62,0.00,,,0.00,WSDL version 423,2013-03-27 08:08:00,
2013-03-27 03:13:00,30.8,20.7,30.24,NNW,338,0.0,0.0,62,0.00,,,0.00,WSDL version 423,2013-03-27 08:13:00,
2013-03-27 03:14:00,30.8,20.7,30.24,NNW,338,0.0,0.0,62,0.00,,,0.00,WSDL version 423,2013-03-27 08:14:00,
2013-03-27 03:18:00,30.7,20.7,30.24,NNW,338,0.0,0.0,62,0.00,,,0.00,WSDL version 423,2013-03-27 08:18:00,
2013-03-27 03:19:00,30.7,20.7,30.24,NNW,338,0.0,0.0,62,0.00,,,0.00,WSDL version 423,2013-03-27 08:19:00,
2013-03-27 03:22:00,30.6,20.5,30.24,NNW,338,0.5,1.6,62,0.00,,,0.00,WSDL version 423,2013-03-27 08:22:00,
2013-03-27 03:27:00,30.6,20.6,30.24,NNW,338,1.1,1.6,62,0.00,,,0.00,WSDL version 423,2013-03-27 08:27:00,
2013-03-27 03:31:00,30.8,20.8,30.24,NNW,338,1.0,1.6,62,0.00,,,0.00,WSDL version 423,2013-03-27 08:31:00,
2013-03-27 03:32:00,30.9,20.8,30.24,NNW,338,0.4,1.3,62,0.00,,,0.00,WSDL version 423,2013-03-27 08:32:00,
2013-03-27 03:33:00,30.9,20.9,30.24,NNW,338,0.0,1.3,62,0.00,,,0.00,WSDL version 423,2013-03-27 08:33:00,
2013-03-27 03:34:00,30.9,20.9,30.24,NNW,338,0.0,1.3,62,0.00,,,0.00,WSDL version 423,2013-03-27 08:34:00,
2013-03-27 03:39:00,30.9,21.1,30.24,NNW,338,0.0,1.3,63,0.00,,,0.00,WSDL version 423,2013-03-27 08:39:00,
2013-03-27 03:40:00,30.9,21.2,30.24,NNW,338,0.0,1.3,63,0.00,,,0.00,WSDL version 423,2013-03-27 08:40:00,
2013-03-27 03:44:00,30.9,21.2,30.24,NNW,338,0.5,1.3,63,0.00,,,0.00,WSDL version 423,2013-03-27 08:44:00,
2013-03-27 03:47:00,30.9,21.2,30.27,NNW,338,0.0,1.3,63,0.00,,,0.00,WSDL version 423,2013-03-27 08:47:00,
2013-03-27 03:49:00,30.9,21.2,30.27,NNW,338,0.0,1.3,63,0.00,,,0.00,WSDL version 423,2013-03-27 08:49:00,
2013-03-27 03:52:00,30.9,21.1,30.27,NNW,338,0.0,1.3,63,0.00,,,0.00,WSDL version 423,2013-03-27 08:52:00,
2013-03-27 03:54:00,30.8,21.0,30.27,NNW,338,0.0,0.0,63,0.00,,,0.00,WSDL version 423,2013-03-27 08:54:00,
2013-03-27 03:57:00,30.5,20.7,30.27,NNW,338,0.0,0.0,63,0.00,,,0.00,WSDL version 423,2013-03-27 08:57:00,
2013-03-27 03:59:00,30.4,20.6,30.27,NNW,338,0.0,0.0,63,0.00,,,0.00,WSDL version 423,2013-03-27 08:59:00,
2013-03-27 04:02:00,30.2,20.5,30.27,NNW,338,0.0,0.0,63,0.00,,,0.00,WSDL version 423,2013-03-27 09:02:00,
2013-03-27 04:04:00,30.1,20.4,30.27,NNW,338,0.0,0.0,63,0.00,,,0.00,WSDL version 423,2013-03-27 09:04:00,
2013-03-27 04:06:00,30.0,20.3,30.27,NNW,338,0.0,1.3,63,0.00,,,0.00,WSDL version 423,2013-03-27 09:06:00,
2013-03-27 04:09:00,29.9,20.2,30.27,NNW,338,1.2,1.6,63,0.00,,,0.00,WSDL version 423,2013-03-27 09:09:00,
2013-03-27 04:10:00,29.9,20.2,30.27,NNW,338,1.3,1.6,63,0.00,,,0.00,WSDL version 423,2013-03-27 09:10:00,
2013-03-27 04:14:00,29.8,20.1,30.27,NNW,338,0.0,1.6,63,0.00,,,0.00,WSDL version 423,2013-03-27 09:14:00,
2013-03-27 04:16:00,29.7,20.0,30.27,NNW,338,0.0,1.6,63,0.00,,,0.00,WSDL version 423,2013-03-27 09:16:00,
2013-03-27 04:18:00,29.6,19.9,30.27,NNW,338,0.0,1.6,63,0.00,,,0.00,WSDL version 423,2013-03-27 09:18:00,
2013-03-27 04:20:00,29.5,19.9,30.27,NNW,338,0.0,1.6,64,0.00,,,0.00,WSDL version 423,2013-03-27 09:20:00,
2013-03-27 04:22:00,29.5,20.0,30.27,NNW,338,0.0,0.0,64,0.00,,,0.00,WSDL version 423,2013-03-27 09:22:00,
2013-03-27 04:23:00,29.5,20.1,30.27,NNW,338,0.0,0.0,64,0.00,,,0.00,WSDL version 423,2013-03-27 09:23:00,
2013-03-27 04:28:00,29.3,19.9,30.27,NNW,338,0.0,0.0,64,0.00,,,0.00,WSDL version 423,2013-03-27 09:28:00,
2013-03-27 04:29:00,29.3,19.9,30.27,NNW,338,0.0,1.1,64,0.00,,,0.00,WSDL version 423,2013-03-27 09:29:00,
2013-03-27 04:32:00,29.3,20.1,30.27,NNW,338,0.0,1.1,65,0.00,,,0.00,WSDL version 423,2013-03-27 09:32:00,
2013-03-27 04:33:00,29.3,20.1,30.27,NNW,338,0.0,1.1,65,0.00,,,0.00,WSDL version 423,2013-03-27 09:33:00,
2013-03-27 04:34:00,29.3,20.2,30.27,NNW,338,0.0,1.1,65,0.00,,,0.00,WSDL version 423,2013-03-27 09:34:00,
2013-03-27 04:39:00,29.2,20.1,30.27,NNW,338,0.0,0.0,65,0.00,,,0.00,WSDL version 423,2013-03-27 09:39:00,
2013-03-27 04:40:00,29.2,20.1,30.27,NNW,338,0.0,0.0,65,0.00,,,0.00,WSDL version 423,2013-03-27 09:40:00,
2013-03-27 04:41:00,29.2,20.1,30.27,NNW,338,0.0,0.0,65,0.00,,,0.00,WSDL version 423,2013-03-27 09:41:00,
2013-03-27 04:44:00,29.1,20.0,30.27,NNW,338,0.0,0.0,65,0.00,,,0.00,WSDL version 423,2013-03-27 09:44:00,
2013-03-27 04:45:00,29.1,20.0,30.27,NNW,338,0.0,0.0,65,0.00,,,0.00,WSDL version 423,2013-03-27 09:45:00,
2013-03-27 04:49:00,29.0,20.0,30.27,NNW,338,0.0,0.0,65,0.00,,,0.00,WSDL version 423,2013-03-27 09:49:00,
2013-03-27 04:51:00,29.0,20.0,30.27,NNW,338,0.0,0.0,66,0.00,,,0.00,WSDL version 423,2013-03-27 09:51:00,
2013-03-27 04:52:00,28.9,20.0,30.27,NNW,338,0.0,0.0,66,0.00,,,0.00,WSDL version 423,2013-03-27 09:52:00,
2013-03-27 04:53:00,28.9,20.1,30.27,NNW,338,0.0,0.0,66,0.00,,,0.00,WSDL version 423,2013-03-27 09:53:00,
2013-03-27 04:55:00,28.9,20.1,30.27,NNW,338,0.0,0.0,66,0.00,,,0.00,WSDL version 423,2013-03-27 09:55:00,
2013-03-27 04:57:00,28.9,20.1,30.27,NNW,338,0.0,0.0,66,0.00,,,0.00,WSDL version 423,2013-03-27 09:57:00,
2013-03-27 05:00:00,28.9,20.1,30.27,NNW,338,0.0,0.0,66,0.00,,,0.00,WSDL version 423,2013-03-27 10:00:00,
2013-03-27 05:01:00,28.8,20.1,30.27,NNW,338,0.0,0.0,66,0.00,,,0.00,WSDL version 423,2013-03-27 10:01:00,
2013-03-27 05:05:00,28.7,20.0,30.27,NNW,338,0.0,0.0,66,0.00,,,0.00,WSDL version 423,2013-03-27 10:05:00,
2013-03-27 05:06:00,28.7,20.0,30.27,NNW,338,0.0,0.0,66,0.00,,,0.00,WSDL version 423,2013-03-27 10:06:00,
2013-03-27 05:07:00,28.7,20.0,30.27,NNW,338,0.0,0.0,66,0.00,,,0.00,WSDL version 423,2013-03-27 10:07:00,
2013-03-27 05:12:00,28.7,20.2,30.27,NNW,338,0.0,0.0,67,0.00,,,0.00,WSDL version 423,2013-03-27 10:12:00,
2013-03-27 05:13:00,28.7,20.2,30.27,NNW,338,0.0,0.0,67,0.00,,,0.00,WSDL version 423,2013-03-27 10:13:00,
2013-03-27 05:17:00,28.6,20.1,30.27,NNW,338,0.0,0.0,67,0.00,,,0.00,WSDL version 423,2013-03-27 10:17:00,
2013-03-27 05:18:00,28.6,20.1,30.27,NNW,338,0.0,0.0,67,0.00,,,0.00,WSDL version 423,2013-03-27 10:18:00,
2013-03-27 05:23:00,28.6,20.1,30.27,NNW,338,0.0,0.0,67,0.00,,,0.00,WSDL version 423,2013-03-27 10:23:00,
2013-03-27 05:25:00,28.6,20.1,30.27,NNW,338,0.0,0.0,67,0.00,,,0.00,WSDL version 423,2013-03-27 10:25:00,
2013-03-27 05:26:00,28.6,20.1,30.27,NNW,338,0.0,0.0,67,0.00,,,0.00,WSDL version 423,2013-03-27 10:26:00,
2013-03-27 05:28:00,28.6,20.1,30.27,NNW,338,0.0,1.1,67,0.00,,,0.00,WSDL version 423,2013-03-27 10:28:00,
2013-03-27 05:29:00,28.6,20.1,30.27,NNW,338,0.0,1.1,67,0.00,,,0.00,WSDL version 423,2013-03-27 10:29:00,
2013-03-27 05:34:00,28.5,20.0,30.24,NNW,338,0.0,1.1,67,0.00,,,0.00,WSDL version 423,2013-03-27 10:34:00,
2013-03-27 05:35:00,28.5,20.0,30.24,NNW,338,0.0,1.1,67,0.00,,,0.00,WSDL version 423,2013-03-27 10:35:00,
2013-03-27 05:38:00,28.4,19.9,30.24,NNW,338,0.0,0.9,67,0.00,,,0.00,WSDL version 423,2013-03-27 10:38:00,
2013-03-27 05:40:00,28.4,19.9,30.24,NNW,338,0.0,0.0,67,0.00,,,0.00,WSDL version 423,2013-03-27 10:40:00,
2013-03-27 05:43:00,28.3,19.8,30.24,NNW,338,0.0,0.0,67,0.00,,,0.00,WSDL version 423,2013-03-27 10:43:00,
2013-03-27 05:44:00,28.3,19.8,30.24,NNW,338,0.0,0.0,68,0.00,,,0.00,WSDL version 423,2013-03-27 10:44:00,
2013-03-27 05:46:00,28.2,19.9,30.27,NNW,338,0.0,0.0,68,0.00,,,0.00,WSDL version 423,2013-03-27 10:46:00,
2013-03-27 05:48:00,28.2,20.2,30.27,NNW,338,0.0,0.0,69,0.00,,,0.00,WSDL version 423,2013-03-27 10:48:00,
2013-03-27 05:52:00,28.2,20.2,30.27,NNW,338,0.0,0.0,68,0.00,,,0.00,WSDL version 423,2013-03-27 10:52:00,
2013-03-27 05:53:00,28.2,20.2,30.27,NNW,338,0.0,0.0,68,0.00,,,0.00,WSDL version 423,2013-03-27 10:53:00,
2013-03-27 05:54:00,28.2,20.1,30.27,NNW,338,0.0,0.0,68,0.00,,,0.00,WSDL version 423,2013-03-27 10:54:00,
2013-03-27 05:59:00,28.0,20.0,30.27,NNW,338,0.0,0.9,69,0.00,,,0.00,WSDL version 423,2013-03-27 10:59:00,
2013-03-27 06:01:00,28.0,20.1,30.27,NNW,338,0.0,0.9,69,0.00,,,0.00,WSDL version 423,2013-03-27 11:01:00,
2013-03-27 06:03:00,28.0,20.1,30.27,NNW,338,0.0,0.9,69,0.00,,,0.00,WSDL version 423,2013-03-27 11:03:00,
2013-03-27 06:04:00,28.0,20.1,30.27,NNW,338,0.0,0.9,69,0.00,,,0.00,WSDL version 423,2013-03-27 11:04:00,
2013-03-27 06:05:00,27.9,20.0,30.27,NNW,338,0.0,0.9,69,0.00,,,0.00,WSDL version 423,2013-03-27 11:05:00,
2013-03-27 06:10:00,28.0,20.1,30.27,NNW,338,0.0,0.9,69,0.00,,,0.00,WSDL version 423,2013-03-27 11:10:00,
2013-03-27 06:13:00,27.9,20.0,30.27,NNW,338,0.0,0.9,69,0.00,,,0.00,WSDL version 423,2013-03-27 11:13:00,
2013-03-27 06:14:00,27.9,20.0,30.27,NNW,338,0.0,0.9,69,0.00,,,0.00,WSDL version 423,2013-03-27 11:14:00,
2013-03-27 06:15:00,27.8,19.9,30.27,NNW,338,0.0,0.9,69,0.00,,,0.00,WSDL version 423,2013-03-27 11:15:00,
2013-03-27 06:18:00,27.8,20.0,30.27,NNW,338,0.0,0.9,69,0.00,,,0.00,WSDL version 423,2013-03-27 11:18:00,
2013-03-27 06:19:00,27.8,20.0,30.27,NNW,338,0.0,0.0,70,0.00,,,0.00,WSDL version 423,2013-03-27 11:19:00,
2013-03-27 06:21:00,27.8,20.1,30.27,NNW,338,0.0,0.0,70,0.00,,,0.00,WSDL version 423,2013-03-27 11:21:00,
2013-03-27 06:24:00,27.8,20.2,30.27,NNW,338,0.0,0.0,70,0.00,,,0.00,WSDL version 423,2013-03-27 11:24:00,
2013-03-27 06:25:00,27.8,20.2,30.27,NNW,338,0.0,0.0,70,0.00,,,0.00,WSDL version 423,2013-03-27 11:25:00,
2013-03-27 06:27:00,27.8,20.2,30.27,NNW,338,0.0,0.0,70,0.00,,,0.00,WSDL version 423,2013-03-27 11:27:00,
2013-03-27 06:30:00,27.8,20.2,30.27,WNW,290,0.0,1.6,70,0.00,,,0.00,WSDL version 423,2013-03-27 11:30:00,
2013-03-27 06:31:00,27.8,20.2,30.27,WSW,255,0.7,1.6,70,0.00,,,0.00,WSDL version 423,2013-03-27 11:31:00,
2013-03-27 06:32:00,27.8,20.2,30.27,WSW,248,1.3,1.6,70,0.00,,,0.00,WSDL version 423,2013-03-27 11:32:00,
2013-03-27 06:37:00,28.1,20.6,30.27,WSW,248,0.0,1.6,71,0.00,,,0.00,WSDL version 423,2013-03-27 11:37:00,
2013-03-27 06:38:00,28.2,20.7,30.27,WSW,248,0.1,1.6,71,0.00,,,0.00,WSDL version 423,2013-03-27 11:38:00,
2013-03-27 06:39:00,28.2,20.9,30.27,WSW,248,0.6,1.6,71,0.00,,,0.00,WSDL version 423,2013-03-27 11:39:00,
2013-03-27 06:40:00,28.3,21.0,30.27,WSW,248,0.4,1.6,71,0.00,,,0.00,WSDL version 423,2013-03-27 11:40:00,
2013-03-27 06:43:00,28.5,21.3,30.27,WSW,248,0.0,1.1,72,0.00,,,0.00,WSDL version 423,2013-03-27 11:43:00,
2013-03-27 06:44:00,28.5,21.4,30.27,WSW,248,0.0,1.1,72,0.00,,,0.00,WSDL version 423,2013-03-27 11:44:00,
2013-03-27 06:45:00,28.6,21.5,30.27,WSW,248,0.0,1.1,72,0.00,,,0.00,WSDL version 423,2013-03-27 11:45:00,
2013-03-27 06:48:00,28.6,21.5,30.27,WSW,248,0.0,1.3,72,0.00,,,0.00,WSDL version 423,2013-03-27 11:48:00,
2013-03-27 06:53:00,28.4,21.3,30.27,WSW,248,0.0,1.3,72,0.00,,,0.00,WSDL version 423,2013-03-27 11:53:00,
2013-03-27 06:54:00,28.4,21.3,30.27,WSW,248,0.0,1.3,72,0.00,,,0.00,WSDL version 423,2013-03-27 11:54:00,
2013-03-27 06:55:00,28.4,21.3,30.27,WSW,248,0.0,1.3,72,0.00,,,0.00,WSDL version 423,2013-03-27 11:55:00,
2013-03-27 06:57:00,28.4,21.3,30.27,WSW,248,0.0,0.0,72,0.00,,,0.00,WSDL version 423,2013-03-27 11:57:00,
2013-03-27 06:59:00,28.4,21.3,30.27,WSW,248,0.0,0.0,72,0.00,,,0.00,WSDL version 423,2013-03-27 11:59:00,
2013-03-27 07:02:00,28.3,21.2,30.27,WSW,248,0.0,1.1,72,0.00,,,0.00,WSDL version 423,2013-03-27 12:02:00,
2013-03-27 07:03:00,28.3,21.2,30.27,WSW,248,0.0,1.1,72,0.00,,,0.00,WSDL version 423,2013-03-27 12:03:00,
2013-03-27 07:07:00,28.4,21.3,30.27,WSW,248,0.0,1.3,72,0.00,,,0.00,WSDL version 423,2013-03-27 12:07:00,
2013-03-27 07:08:00,28.5,21.4,30.27,WSW,248,0.0,1.3,72,0.00,,,0.00,WSDL version 423,2013-03-27 12:08:00,
2013-03-27 07:12:00,28.7,21.8,30.27,WSW,248,0.0,1.3,72,0.00,,,0.00,WSDL version 423,2013-03-27 12:12:00,
2013-03-27 07:13:00,28.7,21.8,30.27,WSW,248,0.0,1.3,72,0.00,,,0.00,WSDL version 423,2013-03-27 12:13:00,
2013-03-27 07:14:00,28.7,21.9,30.27,WSW,248,0.0,0.9,72,0.00,,,0.00,WSDL version 423,2013-03-27 12:14:00,
2013-03-27 07:18:00,28.9,22.2,30.27,WSW,248,0.0,0.0,73,0.00,,,0.00,WSDL version 423,2013-03-27 12:18:00,
2013-03-27 07:19:00,28.9,22.2,30.27,WSW,248,0.0,0.0,73,0.00,,,0.00,WSDL version 423,2013-03-27 12:19:00,
2013-03-27 07:21:00,28.9,22.2,30.27,WSW,248,0.0,0.0,72,0.00,,,0.00,WSDL version 423,2013-03-27 12:21:00,
2013-03-27 07:24:00,29.0,22.1,30.27,WSW,248,0.0,0.0,72,0.00,,,0.00,WSDL version 423,2013-03-27 12:24:00,
2013-03-27 07:25:00,29.0,22.2,30.27,WSW,248,0.0,0.0,73,0.00,,,0.00,WSDL version 423,2013-03-27 12:25:00,
2013-03-27 07:28:00,29.1,22.5,30.27,WSW,248,0.0,0.0,73,0.00,,,0.00,WSDL version 423,2013-03-27 12:28:00,
2013-03-27 07:29:00,29.1,22.5,30.27,WSW,248,0.0,0.0,73,0.00,,,0.00,WSDL version 423,2013-03-27 12:29:00,
2013-03-27 07:30:00,29.1,22.5,30.27,WSW,248,0.0,0.0,73,0.00,,,0.00,WSDL version 423,2013-03-27 12:30:00,
2013-03-27 07:32:00,29.2,22.6,30.30,WSW,248,0.0,0.0,73,0.00,,,0.00,WSDL version 423,2013-03-27 12:32:00,
2013-03-27 07:35:00,29.3,22.7,30.30,WSW,248,0.0,0.0,73,0.00,,,0.00,WSDL version 423,2013-03-27 12:35:00,
2013-03-27 07:37:00,29.4,22.8,30.30,WSW,251,0.6,1.6,73,0.00,,,0.00,WSDL version 423,2013-03-27 12:37:00,
2013-03-27 07:39:00,29.5,22.9,30.30,SW,233,0.9,1.6,73,0.00,,,0.00,WSDL version 423,2013-03-27 12:39:00,
2013-03-27 07:40:00,29.6,23.0,30.30,SW,225,0.9,1.6,73,0.00,,,0.00,WSDL version 423,2013-03-27 12:40:00,
2013-03-27 07:42:00,29.8,23.2,30.30,SW,225,0.0,1.6,73,0.00,,,0.00,WSDL version 423,2013-03-27 12:42:00,
2013-03-27 07:44:00,30.0,23.5,30.30,SW,225,0.0,1.6,74,0.00,,,0.00,WSDL version 423,2013-03-27 12:44:00,
2013-03-27 07:49:00,30.8,24.4,30.30,SW,225,0.0,1.1,74,0.00,,,0.00,WSDL version 423,2013-03-27 12:49:00,
2013-03-27 07:54:00,31.6,25.2,30.30,SW,225,0.0,1.1,75,0.00,,,0.00,WSDL version 423,2013-03-27 12:54:00,
2013-03-27 07:55:00,31.7,25.4,30.30,SW,225,0.0,1.1,75,0.00,,,0.00,WSDL version 423,2013-03-27 12:55:00,
2013-03-27 07:57:00,32.0,25.5,30.30,SW,236,0.0,1.3,75,0.00,,,0.00,WSDL version 423,2013-03-27 12:57:00,
2013-03-27 07:59:00,32.3,25.5,30.30,South,191,0.4,1.3,75,0.00,,,0.00,WSDL version 423,2013-03-27 12:59:00,
2013-03-27 08:00:00,32.5,25.5,30.30,SSW,203,0.0,1.3,75,0.00,,,0.00,WSDL version 423,2013-03-27 13:00:00,
2013-03-27 08:04:00,33.0,26.0,30.30,SSW,203,0.0,1.3,75,0.00,,,0.00,WSDL version 423,2013-03-27 13:04:00,
2013-03-27 08:06:00,33.3,26.1,30.30,SSW,203,0.0,1.3,74,0.00,,,0.00,WSDL version 423,2013-03-27 13:06:00,
2013-03-27 08:07:00,33.4,26.2,30.30,SSW,203,0.0,1.3,74,0.00,,,0.00,WSDL version 423,2013-03-27 13:07:00,
2013-03-27 08:11:00,34.2,26.9,30.30,SSW,203,0.0,0.0,74,0.00,,,0.00,WSDL version 423,2013-03-27 13:11:00,
2013-03-27 08:12:00,34.4,27.1,30.30,SSW,203,0.0,0.0,74,0.00,,,0.00,WSDL version 423,2013-03-27 13:12:00,
2013-03-27 08:15:00,34.9,27.7,30.30,SSW,203,0.0,0.0,75,0.00,,,0.00,WSDL version 423,2013-03-27 13:15:00,
2013-03-27 08:17:00,35.3,28.1,30.30,SSW,203,0.0,0.0,74,0.00,,,0.00,WSDL version 423,2013-03-27 13:17:00,
2013-03-27 08:18:00,35.4,28.2,30.30,SSW,203,0.0,0.0,74,0.00,,,0.00,WSDL version 423,2013-03-27 13:18:00,
2013-03-27 08:22:00,36.0,28.6,30.30,SSW,203,0.0,0.0,73,0.00,,,0.00,WSDL version 423,2013-03-27 13:22:00,
2013-03-27 08:27:00,37.2,29.5,30.30,SSW,203,0.0,0.0,73,0.00,,,0.00,WSDL version 423,2013-03-27 13:27:00,
2013-03-27 08:29:00,37.7,29.9,30.30,SSW,203,0.0,0.0,72,0.00,,,0.00,WSDL version 423,2013-03-27 13:29:00,
2013-03-27 08:30:00,38.0,30.1,30.30,SSW,203,0.0,0.0,72,0.00,,,0.00,WSDL version 423,2013-03-27 13:30:00,
2013-03-27 08:33:00,38.9,30.7,30.30,SSW,203,0.0,0.0,72,0.00,,,0.00,WSDL version 423,2013-03-27 13:33:00,
2013-03-27 08:35:00,39.5,31.2,30.30,SSW,203,0.0,0.9,72,0.00,,,0.00,WSDL version 423,2013-03-27 13:35:00,
2013-03-27 11:17:00,57.4,26.9,30.30,SW,225,0.1,5.6,31,0.00,,,0.00,WSDL version 423,2013-03-27 16:17:00,
2013-03-27 11:19:00,57.3,26.7,30.30,NNW,338,1.9,4.0,31,0.00,,,0.00,WSDL version 423,2013-03-27 16:19:00,
2013-03-27 11:22:00,56.6,25.5,30.30,NNW,333,3.3,6.0,29,0.00,,,0.00,WSDL version 423,2013-03-27 16:22:00,
2013-03-27 11:24:00,56.3,24.7,30.30,NW,318,2.5,6.0,29,0.00,,,0.00,WSDL version 423,2013-03-27 16:24:00,
2013-03-27 11:28:00,56.9,25.7,30.30,West,265,1.6,6.0,29,0.00,,,0.00,WSDL version 423,2013-03-27 16:28:00,
2013-03-27 11:29:00,57.1,25.8,30.30,SW,215,1.2,6.0,29,0.00,,,0.00,WSDL version 423,2013-03-27 16:29:00,
2013-03-27 11:30:00,57.2,25.7,30.30,South,177,0.0,4.0,30,0.00,,,0.00,WSDL version 423,2013-03-27 16:30:00,
2013-03-27 11:32:00,57.4,26.2,30.30,North,3,0.6,3.4,31,0.00,,,0.00,WSDL version 423,2013-03-27 16:32:00,
2013-03-27 11:35:00,58.2,26.8,30.30,NW,318,1.7,2.9,28,0.00,,,0.00,WSDL version 423,2013-03-27 16:35:00,
2013-03-27 11:37:00,58.4,26.7,30.30,ENE,76,0.7,2.9,30,0.00,,,0.00,WSDL version 423,2013-03-27 16:37:00,
2013-03-27 11:38:00,58.4,26.7,30.30,East,80,0.1,2.5,31,0.00,,,0.00,WSDL version 423,2013-03-27 16:38:00,
2013-03-27 11:40:00,58.3,26.6,30.30,NNW,334,2.0,4.3,28,0.00,,,0.00,WSDL version 423,2013-03-27 16:40:00,
2013-03-27 11:41:00,58.3,26.1,30.30,NNW,341,2.9,4.3,28,0.00,,,0.00,WSDL version 423,2013-03-27 16:41:00,
2013-03-27 11:45:00,58.9,26.3,30.30,NW,320,2.2,4.7,28,0.00,,,0.00,WSDL version 423,2013-03-27 16:45:00,
2013-03-27 11:46:00,58.9,26.3,30.30,NW,315,2.6,4.7,28,0.00,,,0.00,WSDL version 423,2013-03-27 16:46:00,
2013-03-27 11:47:00,59.0,26.3,30.30,NW,309,1.7,4.7,28,0.00,,,0.00,WSDL version 423,2013-03-27 16:47:00,
2013-03-27 11:48:00,58.9,25.9,30.30,WNW,293,1.0,4.7,28,0.00,,,0.00,WSDL version 423,2013-03-27 16:48:00,
2013-03-27 11:52:00,58.6,25.6,30.30,NW,313,0.7,4.7,28,0.00,,,0.00,WSDL version 423,2013-03-27 16:52:00,
2013-03-27 11:54:00,58.4,25.5,30.30,NNW,343,2.0,5.8,28,0.00,,,0.00,WSDL version 423,2013-03-27 16:54:00,
2013-03-27 11:55:00,58.3,25.5,30.30,NNW,340,3.4,5.8,29,0.00,,,0.00,WSDL version 423,2013-03-27 16:55:00,
2013-03-27 11:59:00,57.8,25.4,30.30,North,349,2.0,6.3,28,0.00,,,0.00,WSDL version 423,2013-03-27 16:59:00,
2013-03-27 12:01:00,58.3,25.5,30.30,NNW,340,2.5,6.3,28,0.00,,,0.00,WSDL version 423,2013-03-27 17:01:00,
2013-03-27 12:02:00,58.4,25.4,30.30,NNW,338,3.0,6.3,28,0.00,,,0.00,WSDL version 423,2013-03-27 17:02:00,
2013-03-27 12:03:00,58.4,25.4,30.30,NW,321,3.3,6.3,28,0.00,,,0.00,WSDL version 423,2013-03-27 17:03:00,
2013-03-27 12:04:00,58.4,25.4,30.30,NW,323,3.7,6.3,28,0.00,,,0.00,WSDL version 423,2013-03-27 17:04:00,
2013-03-27 12:08:00,58.5,25.6,30.30,NNW,346,3.1,5.4,28,0.00,,,0.00,WSDL version 423,2013-03-27 17:08:00,
2013-03-27 12:09:00,58.5,25.6,30.30,NNW,340,3.7,5.8,28,0.00,,,0.00,WSDL version 423,2013-03-27 17:09:00,
2013-03-27 12:10:00,58.4,25.5,30.30,NNW,340,3.9,5.8,28,0.00,,,0.00,WSDL version 423,2013-03-27 17:10:00,
2013-03-27 12:12:00,58.4,25.4,30.30,NW,318,2.8,5.8,28,0.00,,,0.00,WSDL version 423,2013-03-27 17:12:00,
2013-03-27 12:13:00,58.3,25.3,30.30,NW,323,2.6,5.8,28,0.00,,,0.00,WSDL version 423,2013-03-27 17:13:00,
2013-03-27 12:18:00,58.7,25.4,30.30,SSE,148,1.2,5.8,28,0.00,,,0.00,WSDL version 423,2013-03-27 17:18:00,
2013-03-27 12:20:00,58.7,25.7,30.30,NNE,25,0.6,4.7,28,0.00,,,0.00,WSDL version 423,2013-03-27 17:20:00,
2013-03-27 12:23:00,58.9,25.8,30.30,NE,34,1.6,4.7,28,0.00,,,0.00,WSDL version 423,2013-03-27 17:23:00,
2013-03-27 12:25:00,59.0,25.9,30.30,SSW,203,2.1,4.7,28,0.00,,,0.00,WSDL version 423,2013-03-27 17:25:00,
2013-03-27 12:26:00,59.0,25.9,30.30,NNE,14,1.7,4.7,28,0.00,,,0.00,WSDL version 423,2013-03-27 17:26:00,
2013-03-27 12:28:00,59.2,26.1,30.30,North,358,1.4,4.7,28,0.00,,,0.00,WSDL version 423,2013-03-27 17:28:00,
2013-03-27 12:29:00,59.3,26.3,30.30,NNW,340,1.3,4.7,28,0.00,,,0.00,WSDL version 423,2013-03-27 17:29:00,
2013-03-27 12:30:00,59.5,26.4,30.30,NNW,338,2.3,4.7,28,0.00,,,0.00,WSDL version 423,2013-03-27 17:30:00,
2013-03-27 12:33:00,59.7,26.6,30.30,NNW,329,2.1,4.7,28,0.00,,,0.00,WSDL version 423,2013-03-27 17:33:00,
2013-03-27 12:34:00,59.8,26.6,30.30,NNW,345,0.8,4.7,28,0.00,,,0.00,WSDL version 423,2013-03-27 17:34:00,
2013-03-27 12:35:00,59.9,26.7,30.30,North,355,1.0,4.7,28,0.00,,,0.00,WSDL version 423,2013-03-27 17:35:00,
2013-03-27 12:37:00,59.9,26.7,30.30,NNW,333,3.3,5.6,28,0.00,,,0.00,WSDL version 423,2013-03-27 17:37:00,
2013-03-27 12:40:00,59.9,26.7,30.30,NNW,343,2.8,5.6,28,0.00,,,0.00,WSDL version 423,2013-03-27 17:40:00,
2013-03-27 12:42:00,60.1,26.9,30.30,WNW,287,1.7,5.6,28,0.00,,,0.00,WSDL version 423,2013-03-27 17:42:00,
2013-03-27 12:44:00,60.4,26.6,30.30,NNW,346,1.8,5.6,25,0.00,,,0.00,WSDL version 423,2013-03-27 17:44:00,
2013-03-27 12:45:00,60.4,26.2,30.30,North,360,2.7,5.6,27,0.00,,,0.00,WSDL version 423,2013-03-27 17:45:00,
2013-03-27 12:50:00,59.6,25.4,30.27,East,101,0.9,3.8,26,0.00,,,0.00,WSDL version 423,2013-03-27 17:50:00,
2013-03-27 12:52:00,58.8,23.8,30.27,NW,307,0.9,6.0,26,0.00,,,0.00,WSDL version 423,2013-03-27 17:52:00,
2013-03-27 12:54:00,58.1,23.4,30.27,NNW,341,4.4,6.5,26,0.00,,,0.00,WSDL version 423,2013-03-27 17:54:00,
2013-03-27 12:56:00,57.9,23.3,30.27,NNW,340,3.5,6.5,26,0.00,,,0.00,WSDL version 423,2013-03-27 17:56:00,
2013-03-27 12:57:00,57.9,23.2,30.27,NNW,331,2.8,6.5,26,0.00,,,0.00,WSDL version 423,2013-03-27 17:57:00,
2013-03-27 12:59:00,58.0,23.3,30.27,NNW,328,3.2,6.5,26,0.00,,,0.00,WSDL version 423,2013-03-27 17:59:00,
2013-03-27 13:02:00,58.1,23.4,30.27,NNW,343,2.4,6.5,26,0.00,,,0.00,WSDL version 423,2013-03-27 18:02:00,
2013-03-27 13:03:00,58.2,23.5,30.27,NNW,343,2.7,5.4,26,0.00,,,0.00,WSDL version 423,2013-03-27 18:03:00,
2013-03-27 13:07:00,58.8,24.4,30.27,North,353,2.0,5.4,26,0.00,,,0.00,WSDL version 423,2013-03-27 18:07:00,
2013-03-27 13:09:00,59.4,25.1,30.27,NNE,15,2.7,5.4,28,0.00,,,0.00,WSDL version 423,2013-03-27 18:09:00,
2013-03-27 13:11:00,59.5,24.9,30.27,NNW,343,2.6,5.4,26,0.00,,,0.00,WSDL version 423,2013-03-27 18:11:00,
2013-03-27 13:12:00,59.6,24.9,30.27,North,349,3.3,5.4,26,0.00,,,0.00,WSDL version 423,2013-03-27 18:12:00,
2013-03-27 13:15:00,59.0,24.2,30.27,NNW,338,4.0,5.6,26,0.00,,,0.00,WSDL version 423,2013-03-27 18:15:00,
2013-03-27 13:17:00,58.9,24.1,30.27,NNW,343,2.7,5.6,26,0.00,,,0.00,WSDL version 423,2013-03-27 18:17:00,
2013-03-27 13:18:00,59.0,24.5,30.27,North,357,2.2,5.6,28,0.00,,,0.00,WSDL version 423,2013-03-27 18:18:00,
2013-03-27 13:19:00,59.1,24.6,30.27,NW,318,2.0,5.6,26,0.00,,,0.00,WSDL version 423,2013-03-27 18:19:00,
2013-03-27 13:23:00,59.1,24.3,30.27,North,353,3.3,5.8,26,0.00,,,0.00,WSDL version 423,2013-03-27 18:23:00,
2013-03-27 13:24:00,59.1,24.2,30.27,North,350,2.7,5.8,26,0.00,,,0.00,WSDL version 423,2013-03-27 18:24:00,
2013-03-27 13:25:00,59.1,24.2,30.27,North,354,3.1,5.8,26,0.00,,,0.00,WSDL version 423,2013-03-27 18:25:00,
2013-03-27 13:29:00,59.4,24.5,30.27,NW,326,3.3,5.8,26,0.00,,,0.00,WSDL version 423,2013-03-27 18:29:00,
2013-03-27 13:30:00,59.4,24.5,30.27,NNW,335,2.9,7.2,26,0.00,,,0.00,WSDL version 423,2013-03-27 18:30:00,
2013-03-27 13:32:00,59.5,24.4,30.27,NNW,335,4.0,7.2,26,0.00,,,0.00,WSDL version 423,2013-03-27 18:32:00,
2013-03-27 13:35:00,59.1,24.1,30.27,NNW,345,5.7,7.2,26,0.00,,,0.00,WSDL version 423,2013-03-27 18:35:00,
2013-03-27 13:37:00,58.5,23.8,30.27,NNW,335,4.6,7.2,26,0.00,,,0.00,WSDL version 423,2013-03-27 18:37:00,
2013-03-27 13:38:00,58.4,23.7,30.27,NNW,333,3.4,7.2,26,0.00,,,0.00,WSDL version 423,2013-03-27 18:38:00,
2013-03-27 13:39:00,58.4,23.7,30.27,NW,318,3.7,7.2,26,0.00,,,0.00,WSDL version 423,2013-03-27 18:39:00,
2013-03-27 13:43:00,59.1,24.2,30.27,NE,39,1.1,6.5,26,0.00,,,0.00,WSDL version 423,2013-03-27 18:43:00,
2013-03-27 13:44:00,59.2,24.3,30.27,NNE,13,1.4,6.5,26,0.00,,,0.00,WSDL version 423,2013-03-27 18:44:00,
2013-03-27 13:45:00,59.2,24.3,30.27,NNE,28,1.2,6.0,26,0.00,,,0.00,WSDL version 423,2013-03-27 18:45:00,
2013-03-27 13:46:00,59.3,24.7,30.27,East,90,1.5,5.4,27,0.00,,,0.00,WSDL version 423,2013-03-27 18:46:00,
2013-03-27 13:49:00,59.6,25.4,30.27,NW,318,2.2,4.0,25,0.00,,,0.00,WSDL version 423,2013-03-27 18:49:00,
2013-03-27 13:50:00,59.6,25.8,30.27,NW,326,2.4,4.0,28,0.00,,,0.00,WSDL version 423,2013-03-27 18:50:00,
2013-03-27 13:54:00,59.6,25.3,30.27,NW,315,3.0,6.0,27,0.00,,,0.00,WSDL version 423,2013-03-27 18:54:00,
2013-03-27 13:55:00,59.6,24.8,30.27,WSW,255,1.5,6.0,25,0.00,,,0.00,WSDL version 423,2013-03-27 18:55:00,
2013-03-27 13:59:00,60.0,24.1,30.27,North,353,1.9,6.0,25,0.00,,,0.00,WSDL version 423,2013-03-27 18:59:00,
2013-03-27 14:00:00,59.8,24.2,30.27,NNW,331,2.6,6.0,26,0.00,,,0.00,WSDL version 423,2013-03-27 19:00:00,
2013-03-27 14:01:00,59.6,24.2,30.27,North,357,4.0,5.6,26,0.00,,,0.00,WSDL version 423,2013-03-27 19:01:00,
2013-03-27 14:02:00,59.5,24.3,30.27,NNW,345,3.6,5.6,26,0.00,,,0.00,WSDL version 423,2013-03-27 19:02:00,
2013-03-27 14:07:00,59.1,24.3,30.27,NNW,338,4.5,8.5,26,0.00,,,0.00,WSDL version 423,2013-03-27 19:07:00,
2013-03-27 14:09:00,58.8,24.0,30.27,NW,320,4.9,8.5,26,0.00,,,0.00,WSDL version 423,2013-03-27 19:09:00,
2013-03-27 14:13:00,59.0,24.1,30.27,NNW,348,2.4,8.5,26,0.00,,,0.00,WSDL version 423,2013-03-27 19:13:00,
2013-03-27 14:15:00,59.1,24.6,30.27,North,3,3.3,8.5,28,0.00,,,0.00,WSDL version 423,2013-03-27 19:15:00,
2013-03-27 14:16:00,59.1,24.9,30.27,North,350,3.1,8.5,27,0.00,,,0.00,WSDL version 423,2013-03-27 19:16:00,
2013-03-27 14:18:00,59.0,24.8,30.27,North,4,3.4,5.4,26,0.00,,,0.00,WSDL version 423,2013-03-27 19:18:00,
2013-03-27 14:19:00,59.0,24.8,30.27,North,8,3.9,5.4,26,0.00,,,0.00,WSDL version 423,2013-03-27 19:19:00,
2013-03-27 14:20:00,59.0,24.8,30.27,North,352,3.4,5.4,28,0.00,,,0.00,WSDL version 423,2013-03-27 19:20:00,
2013-03-27 14:24:00,58.3,23.8,30.27,North,355,4.1,6.0,26,0.00,,,0.00,WSDL version 423,2013-03-27 19:24:00,
2013-03-27 14:27:00,58.0,23.3,30.27,North,5,2.3,6.0,26,0.00,,,0.00,WSDL version 423,2013-03-27 19:27:00,
2013-03-27 14:29:00,58.3,23.5,30.27,ESE,107,0.8,6.0,26,0.00,,,0.00,WSDL version 423,2013-03-27 19:29:00,
2013-03-27 14:31:00,58.4,23.7,30.24,NNW,340,2.4,6.0,26,0.00,,,0.00,WSDL version 423,2013-03-27 19:31:00,
2013-03-27 14:35:00,58.3,23.6,30.24,NNW,341,2.8,5.6,26,0.00,,,0.00,WSDL version 423,2013-03-27 19:35:00,
2013-03-27 14:36:00,58.3,23.5,30.24,NNW,338,4.0,5.6,26,0.00,,,0.00,WSDL version 423,2013-03-27 19:36:00,
2013-03-27 14:40:00,57.8,23.1,30.24,NW,318,4.3,5.6,26,0.00,,,0.00,WSDL version 423,2013-03-27 19:40:00,
2013-03-27 14:44:00,57.5,22.9,30.24,North,360,1.9,5.6,26,0.00,,,0.00,WSDL version 423,2013-03-27 19:44:00,
2013-03-27 14:45:00,57.6,23.0,30.24,North,360,1.3,5.6,26,0.00,,,0.00,WSDL version 423,2013-03-27 19:45:00,
2013-03-27 14:46:00,57.9,23.2,30.24,North,357,1.0,5.6,26,0.00,,,0.00,WSDL version 423,2013-03-27 19:46:00,
2013-03-27 14:49:00,58.3,24.1,30.24,North,352,2.6,4.0,28,0.00,,,0.00,WSDL version 423,2013-03-27 19:49:00,
2013-03-27 14:51:00,58.5,25.2,30.24,NNE,33,1.0,3.6,28,0.00,,,0.00,WSDL version 423,2013-03-27 19:51:00,
2013-03-27 14:52:00,58.6,25.6,30.24,NE,53,0.9,3.6,28,0.00,,,0.00,WSDL version 423,2013-03-27 19:52:00,
2013-03-27 14:54:00,58.8,25.5,30.24,NNW,340,1.0,5.6,27,0.00,,,0.00,WSDL version 423,2013-03-27 19:54:00,
2013-03-27 14:55:00,58.8,25.5,30.24,NNW,338,2.7,5.6,28,0.00,,,0.00,WSDL version 423,2013-03-27 19:55:00,
2013-03-27 14:58:00,58.7,25.1,30.24,WNW,288,1.0,5.6,26,0.00,,,0.00,WSDL version 423,2013-03-27 19:58:00,
2013-03-27 15:00:00,58.7,24.6,30.24,NNW,338,2.7,6.5,26,0.00,,,0.00,WSDL version 423,2013-03-27 20:00:00,
2013-03-27 15:03:00,58.4,23.7,30.24,NNW,332,3.1,6.5,26,0.00,,,0.00,WSDL version 423,2013-03-27 20:03:00,
2013-03-27 15:06:00,58.3,23.6,30.24,NNW,345,2.2,6.5,26,0.00,,,0.00,WSDL version 423,2013-03-27 20:06:00,
2013-03-27 15:07:00,58.4,23.6,30.24,NNW,338,2.5,6.5,26,0.00,,,0.00,WSDL version 423,2013-03-27 20:07:00,
2013-03-27 15:08:00,58.5,23.7,30.24,NNW,328,2.1,6.5,26,0.00,,,0.00,WSDL version 423,2013-03-27 20:08:00,
2013-03-27 15:09:00,58.7,23.9,30.24,NW,310,1.9,6.5,26,0.00,,,0.00,WSDL version 423,2013-03-27 20:09:00,
2013-03-27 15:14:00,59.2,25.1,30.24,North,360,2.8,5.8,26,0.00,,,0.00,WSDL version 423,2013-03-27 20:14:00,
2013-03-27 15:16:00,59.0,24.9,30.24,NNW,340,3.8,5.8,26,0.00,,,0.00,WSDL version 423,2013-03-27 20:16:00,
2013-03-27 15:20:00,58.2,23.5,30.24,NNW,340,4.4,6.3,26,0.00,,,0.00,WSDL version 423,2013-03-27 20:20:00,
2013-03-27 15:21:00,58.0,23.3,30.24,NNW,338,4.6,6.5,26,0.00,,,0.00,WSDL version 423,2013-03-27 20:21:00,
2013-03-27 15:24:00,57.3,22.7,30.24,NNW,340,4.0,6.5,26,0.00,,,0.00,WSDL version 423,2013-03-27 20:24:00,
2013-03-27 15:27:00,57.1,22.5,30.24,NNW,343,3.6,7.2,26,0.00,,,0.00,WSDL version 423,2013-03-27 20:27:00,
2013-03-27 15:29:00,57.0,22.4,30.24,NNW,338,4.0,7.2,26,0.00,,,0.00,WSDL version 423,2013-03-27 20:29:00,
2013-03-27 15:32:00,56.9,22.4,30.24,NNW,338,2.4,7.2,26,0.00,,,0.00,WSDL version 423,2013-03-27 20:32:00,
2013-03-27 15:34:00,56.9,22.4,30.24,NW,325,2.7,7.2,26,0.00,,,0.00,WSDL version 423,2013-03-27 20:34:00,
2013-03-27 15:39:00,57.1,22.6,30.24,WNW,298,0.3,4.7,26,0.00,,,0.00,WSDL version 423,2013-03-27 20:39:00,
2013-03-27 15:40:00,57.2,22.7,30.24,NW,310,1.1,4.7,26,0.00,,,0.00,WSDL version 423,2013-03-27 20:40:00,
2013-03-27 15:41:00,57.4,22.8,30.24,NW,323,1.3,4.7,26,0.00,,,0.00,WSDL version 423,2013-03-27 20:41:00,
2013-03-27 15:46:00,57.2,22.6,30.24,NNW,334,3.0,5.6,26,0.00,,,0.00,WSDL version 423,2013-03-27 20:46:00,
2013-03-27 15:47:00,57.1,22.5,30.24,North,350,3.2,5.6,26,0.00,,,0.00,WSDL version 423,2013-03-27 20:47:00,
2013-03-27 15:48:00,57.0,22.5,30.24,NNW,348,3.5,5.6,26,0.00,,,0.00,WSDL version 423,2013-03-27 20:48:00,
2013-03-27 15:52:00,56.9,22.4,30.24,NW,318,2.7,5.8,26,0.00,,,0.00,WSDL version 423,2013-03-27 20:52:00,
2013-03-27 15:54:00,57.0,22.4,30.24,North,352,1.3,5.8,26,0.00,,,0.00,WSDL version 423,2013-03-27 20:54:00,
2013-03-27 15:57:00,57.4,23.7,30.24,NW,308,1.8,5.8,28,0.00,,,0.00,WSDL version 423,2013-03-27 20:57:00,
2013-03-27 15:58:00,57.4,23.6,30.24,NW,323,1.7,5.8,26,0.00,,,0.00,WSDL version 423,2013-03-27 20:58:00,
2013-03-27 16:01:00,57.3,23.1,30.24,North,357,3.6,6.0,26,0.00,,,0.00,WSDL version 423,2013-03-27 21:01:00,
2013-03-27 16:04:00,56.7,22.2,30.24,NNW,343,4.7,7.2,26,0.00,,,0.00,WSDL version 423,2013-03-27 21:04:00,
2013-03-27 16:05:00,56.5,22.1,30.24,NNW,335,5.0,7.2,26,0.00,,,0.00,WSDL version 423,2013-03-27 21:05:00,
2013-03-27 16:08:00,56.2,21.8,30.24,NNW,345,4.3,7.2,26,0.00,,,0.00,WSDL version 423,2013-03-27 21:08:00,
2013-03-27 16:09:00,56.2,21.8,30.24,NNW,340,4.0,7.2,26,0.00,,,0.00,WSDL version 423,2013-03-27 21:09:00,
2013-03-27 16:10:00,56.4,21.9,30.24,NNW,338,3.6,7.2,26,0.00,,,0.00,WSDL version 423,2013-03-27 21:10:00,
2013-03-27 16:15:00,56.4,21.9,30.24,NNW,343,4.4,6.3,26,0.00,,,0.00,WSDL version 423,2013-03-27 21:15:00,
2013-03-27 16:16:00,56.3,21.9,30.24,NNW,338,4.7,6.3,26,0.00,,,0.00,WSDL version 423,2013-03-27 21:16:00,
2013-03-27 16:17:00,56.2,22.3,30.24,NNW,338,5.0,6.3,28,0.00,,,0.00,WSDL version 423,2013-03-27 21:17:00,
2013-03-27 16:21:00,56.0,22.5,30.24,NNW,340,4.4,6.3,27,0.00,,,0.00,WSDL version 423,2013-03-27 21:21:00,
2013-03-27 16:26:00,55.9,22.4,30.24,North,350,3.8,6.3,27,0.00,,,0.00,WSDL version 423,2013-03-27 21:26:00,
2013-03-27 16:28:00,55.7,22.3,30.24,NNW,338,5.3,6.5,27,0.00,,,0.00,WSDL version 423,2013-03-27 21:28:00,
2013-03-27 16:30:00,55.3,21.9,30.24,NNW,345,5.7,7.4,27,0.00,,,0.00,WSDL version 423,2013-03-27 21:30:00,
2013-03-27 16:32:00,55.1,21.7,30.21,NNW,330,4.1,7.4,27,0.00,,,0.00,WSDL version 423,2013-03-27 21:32:00,
2013-03-27 16:33:00,55.1,21.8,30.21,NNW,335,3.4,7.4,27,0.00,,,0.00,WSDL version 423,2013-03-27 21:33:00,
2013-03-27 16:35:00,55.2,21.8,30.21,NW,326,2.3,7.4,27,0.00,,,0.00,WSDL version 423,2013-03-27 21:35:00,
2013-03-27 16:38:00,55.5,22.1,30.21,NNW,343,3.1,7.4,27,0.00,,,0.00,WSDL version 423,2013-03-27 21:38:00,
2013-03-27 16:39:00,55.5,22.1,30.21,NNW,335,3.2,7.4,27,0.00,,,0.00,WSDL version 423,2013-03-27 21:39:00,
2013-03-27 16:40:00,55.4,22.0,30.21,NNW,329,3.9,5.4,27,0.00,,,0.00,WSDL version 423,2013-03-27 21:40:00,
2013-03-27 16:43:00,55.3,21.9,30.21,NNW,333,2.0,5.4,27,0.00,,,0.00,WSDL version 423,2013-03-27 21:43:00,
2013-03-27 16:44:00,55.3,21.9,30.21,NNW,335,2.4,5.4,27,0.00,,,0.00,WSDL version 423,2013-03-27 21:44:00,
2013-03-27 16:45:00,55.3,21.9,30.21,NNW,335,3.3,5.4,27,0.00,,,0.00,WSDL version 423,2013-03-27 21:45:00,
2013-03-27 16:47:00,55.3,22.3,30.21,NNW,330,3.0,5.4,27,0.00,,,0.00,WSDL version 423,2013-03-27 21:47:00,
2013-03-27 16:49:00,55.3,22.2,30.21,NNW,338,2.6,4.7,27,0.00,,,0.00,WSDL version 423,2013-03-27 21:49:00,
2013-03-27 16:50:00,55.3,22.2,30.21,NNW,343,2.8,4.7,27,0.00,,,0.00,WSDL version 423,2013-03-27 21:50:00,
2013-03-27 16:53:00,55.2,22.5,30.21,NW,326,2.6,4.5,27,0.00,,,0.00,WSDL version 423,2013-03-27 21:53:00,
2013-03-27 16:56:00,55.0,21.9,30.21,NNW,335,3.5,5.4,27,0.00,,,0.00,WSDL version 423,2013-03-27 21:56:00,
2013-03-27 16:57:00,54.9,21.6,30.21,NNW,328,2.8,5.4,27,0.00,,,0.00,WSDL version 423,2013-03-27 21:57:00,
2013-03-27 17:00:00,55.1,22.7,30.21,NNW,330,1.5,5.4,29,0.00,,,0.00,WSDL version 423,2013-03-27 22:00:00,
2013-03-27 17:02:00,55.2,23.5,30.21,NNW,335,2.2,5.4,29,0.00,,,0.00,WSDL version 423,2013-03-27 22:02:00,
2013-03-27 17:05:00,55.3,23.6,30.21,NNW,333,1.3,4.7,29,0.00,,,0.00,WSDL version 423,2013-03-27 22:05:00,
2013-03-27 17:07:00,55.4,23.6,30.21,NNW,330,2.3,3.8,29,0.00,,,0.00,WSDL version 423,2013-03-27 22:07:00,
2013-03-27 17:12:00,55.7,23.9,30.21,West,281,1.0,3.8,29,0.00,,,0.00,WSDL version 423,2013-03-27 22:12:00,
2013-03-27 17:13:00,55.7,24.0,30.21,WSW,250,1.1,3.8,29,0.00,,,0.00,WSDL version 423,2013-03-27 22:13:00,
2013-03-27 17:14:00,55.7,24.0,30.21,North,10,1.0,3.8,29,0.00,,,0.00,WSDL version 423,2013-03-27 22:14:00,
2013-03-27 17:17:00,55.8,24.0,30.21,WNW,293,0.0,2.2,29,0.00,,,0.00,WSDL version 423,2013-03-27 22:17:00,
2013-03-27 17:18:00,55.8,24.1,30.21,NW,313,0.6,2.2,29,0.00,,,0.00,WSDL version 423,2013-03-27 22:18:00,
2013-03-27 17:19:00,55.9,24.1,30.21,NW,313,1.1,2.2,29,0.00,,,0.00,WSDL version 423,2013-03-27 22:19:00,
2013-03-27 17:20:00,55.9,24.1,30.21,NW,315,1.2,2.2,29,0.00,,,0.00,WSDL version 423,2013-03-27 22:20:00,
2013-03-27 17:22:00,55.9,23.8,30.21,NW,315,0.2,2.2,27,0.00,,,0.00,WSDL version 423,2013-03-27 22:22:00,
2013-03-27 17:24:00,55.7,23.6,30.21,NNE,25,0.4,2.5,29,0.00,,,0.00,WSDL version 423,2013-03-27 22:24:00,
2013-03-27 17:27:00,55.6,23.9,30.21,SW,228,0.8,2.5,29,0.00,,,0.00,WSDL version 423,2013-03-27 22:27:00,
2013-03-27 17:29:00,55.6,23.3,30.21,NW,326,1.3,2.7,27,0.00,,,0.00,WSDL version 423,2013-03-27 22:29:00,
2013-03-27 17:31:00,55.6,23.2,30.21,WNW,290,0.6,2.7,29,0.00,,,0.00,WSDL version 423,2013-03-27 22:31:00,
2013-03-27 17:33:00,55.6,23.3,30.21,West,263,1.1,2.9,28,0.00,,,0.00,WSDL version 423,2013-03-27 22:33:00,
2013-03-27 17:34:00,55.5,23.2,30.21,West,264,1.4,3.1,27,0.00,,,0.00,WSDL version 423,2013-03-27 22:34:00,
2013-03-27 17:36:00,55.5,22.7,30.21,West,270,2.0,3.1,27,0.00,,,0.00,WSDL version 423,2013-03-27 22:36:00,
2013-03-27 17:38:00,55.5,22.1,30.21,West,264,2.5,3.4,27,0.00,,,0.00,WSDL version 423,2013-03-27 22:38:00,
2013-03-27 17:39:00,55.6,22.1,30.21,West,265,2.2,3.4,27,0.00,,,0.00,WSDL version 423,2013-03-27 22:39:00,
2013-03-27 17:42:00,55.6,22.2,30.21,West,263,2.0,3.4,27,0.00,,,0.00,WSDL version 423,2013-03-27 22:42:00,
2013-03-27 17:43:00,55.6,22.2,30.21,WNW,285,1.2,3.4,27,0.00,,,0.00,WSDL version 423,2013-03-27 22:43:00,
2013-03-27 17:44:00,55.7,22.2,30.21,NW,315,1.1,3.4,27,0.00,,,0.00,WSDL version 423,2013-03-27 22:44:00,
2013-03-27 17:48:00,55.7,23.3,30.21,NW,315,1.8,3.4,29,0.00,,,0.00,WSDL version 423,2013-03-27 22:48:00,
2013-03-27 17:49:00,55.6,23.6,30.21,NW,320,1.4,3.4,29,0.00,,,0.00,WSDL version 423,2013-03-27 22:49:00,
2013-03-27 17:50:00,55.6,23.6,30.21,NW,320,1.4,3.1,29,0.00,,,0.00,WSDL version 423,2013-03-27 22:50:00,
2013-03-27 17:52:00,55.6,23.8,30.21,NW,315,0.6,3.1,29,0.00,,,0.00,WSDL version 423,2013-03-27 22:52:00,
2013-03-27 17:54:00,55.6,23.1,30.21,NW,315,1.3,3.1,27,0.00,,,0.00,WSDL version 423,2013-03-27 22:54:00,
2013-03-27 17:55:00,55.5,22.7,30.21,NW,315,1.5,3.1,27,0.00,,,0.00,WSDL version 423,2013-03-27 22:55:00,
2013-03-27 17:56:00,55.5,22.4,30.21,NW,310,1.2,2.9,27,0.00,,,0.00,WSDL version 423,2013-03-27 22:56:00,
2013-03-27 18:01:00,55.3,22.3,30.21,WNW,295,1.1,2.9,27,0.00,,,0.00,WSDL version 423,2013-03-27 23:01:00,
2013-03-27 18:02:00,55.3,22.2,30.21,NNW,344,1.3,2.9,27,0.00,,,0.00,WSDL version 423,2013-03-27 23:02:00,
2013-03-27 18:03:00,55.2,21.8,30.21,NNW,335,0.7,2.2,27,0.00,,,0.00,WSDL version 423,2013-03-27 23:03:00,
2013-03-27 18:07:00,54.9,21.6,30.21,NW,315,0.4,2.2,27,0.00,,,0.00,WSDL version 423,2013-03-27 23:07:00,
2013-03-27 18:08:00,54.9,21.5,30.21,NW,315,0.1,2.2,27,0.00,,,0.00,WSDL version 423,2013-03-27 23:08:00,
2013-03-27 18:10:00,54.8,21.5,30.21,NW,315,0.4,2.2,27,0.00,,,0.00,WSDL version 423,2013-03-27 23:10:00,
2013-03-27 18:11:00,54.8,21.5,30.21,NW,315,0.1,2.2,27,0.00,,,0.00,WSDL version 423,2013-03-27 23:11:00,
2013-03-27 18:12:00,54.8,21.5,30.21,NW,315,0.0,1.3,27,0.00,,,0.00,WSDL version 423,2013-03-27 23:12:00,
2013-03-27 18:13:00,54.8,21.5,30.21,NW,315,0.0,1.3,27,0.00,,,0.00,WSDL version 423,2013-03-27 23:13:00,
2013-03-27 18:16:00,54.6,21.3,30.21,NW,307,0.0,1.3,27,0.00,,,0.00,WSDL version 423,2013-03-27 23:16:00,
2013-03-27 18:17:00,54.5,21.2,30.21,WNW,285,0.4,2.0,27,0.00,,,0.00,WSDL version 423,2013-03-27 23:17:00,
2013-03-27 18:18:00,54.4,21.1,30.21,West,267,0.8,2.0,27,0.00,,,0.00,WSDL version 423,2013-03-27 23:18:00,
2013-03-27 18:22:00,54.2,21.0,30.21,WNW,293,0.4,2.0,27,0.00,,,0.00,WSDL version 423,2013-03-27 23:22:00,
2013-03-27 18:24:00,54.2,20.9,30.21,WNW,293,0.1,2.0,27,0.00,,,0.00,WSDL version 423,2013-03-27 23:24:00,
2013-03-27 18:26:00,54.1,20.9,30.21,WNW,293,0.0,2.0,27,0.00,,,0.00,WSDL version 423,2013-03-27 23:26:00,
2013-03-27 18:27:00,54.1,20.8,30.21,WNW,293,0.0,1.6,27,0.00,,,0.00,WSDL version 423,2013-03-27 23:27:00,
2013-03-27 18:32:00,53.7,20.5,30.21,West,270,0.5,2.0,27,0.00,,,0.00,WSDL version 423,2013-03-27 23:32:00,
2013-03-27 18:33:00,53.7,20.5,30.21,West,262,0.4,2.5,27,0.00,,,0.00,WSDL version 423,2013-03-27 23:33:00,
2013-03-27 18:34:00,53.6,20.4,30.21,WSW,250,0.3,2.5,27,0.00,,,0.00,WSDL version 423,2013-03-27 23:34:00,
2013-03-27 18:38:00,53.4,20.2,30.21,West,270,0.0,2.5,27,0.00,,,0.00,WSDL version 423,2013-03-27 23:38:00,
2013-03-27 18:39:00,53.3,20.1,30.21,West,270,0.0,2.5,27,0.00,,,0.00,WSDL version 423,2013-03-27 23:39:00,
2013-03-27 18:40:00,53.2,20.1,30.21,West,270,0.0,2.5,27,0.00,,,0.00,WSDL version 423,2013-03-27 23:40:00,
2013-03-27 18:44:00,53.0,19.9,30.21,West,270,0.0,2.0,27,0.00,,,0.00,WSDL version 423,2013-03-27 23:44:00,
2013-03-27 18:45:00,52.9,19.9,30.21,West,270,0.0,2.0,27,0.00,,,0.00,WSDL version 423,2013-03-27 23:45:00,
2013-03-27 18:46:00,52.8,19.8,30.21,West,270,0.0,2.0,27,0.00,,,0.00,WSDL version 423,2013-03-27 23:46:00,
2013-03-27 18:50:00,52.6,19.6,30.21,West,270,0.0,0.9,27,0.00,,,0.00,WSDL version 423,2013-03-27 23:50:00,
2013-03-27 18:51:00,52.6,19.5,30.21,West,270,0.0,0.9,27,0.00,,,0.00,WSDL version 423,2013-03-27 23:51:00,
2013-03-27 18:52:00,52.5,19.5,30.21,West,270,0.0,0.9,27,0.00,,,0.00,WSDL version 423,2013-03-27 23:52:00,
2013-03-27 18:55:00,52.3,19.3,30.21,West,270,0.0,0.0,27,0.00,,,0.00,WSDL version 423,2013-03-27 23:55:00,
2013-03-27 18:56:00,52.2,19.2,30.21,West,270,0.0,0.0,27,0.00,,,0.00,WSDL version 423,2013-03-27 23:56:00,
2013-03-27 18:58:00,52.1,19.1,30.21,West,270,0.0,0.0,27,0.00,,,0.00,WSDL version 423,2013-03-27 23:58:00,
2013-03-27 19:00:00,52.0,19.1,30.21,West,270,0.0,0.0,27,0.00,,,0.00,WSDL version 423,2013-03-28 00:00:00,
2013-03-27 19:05:00,51.9,19.0,30.21,West,270,0.0,0.0,27,0.00,,,0.00,WSDL version 423,2013-03-28 00:05:00,
2013-03-27 19:07:00,51.8,18.9,30.21,West,270,0.0,0.0,27,0.00,,,0.00,WSDL version 423,2013-03-28 00:07:00,
2013-03-27 19:08:00,51.8,18.8,30.21,West,270,0.0,0.0,27,0.00,,,0.00,WSDL version 423,2013-03-28 00:08:00,
2013-03-27 19:09:00,51.7,18.8,30.21,West,270,0.0,0.0,27,0.00,,,0.00,WSDL version 423,2013-03-28 00:09:00,
2013-03-27 19:12:00,51.3,18.5,30.21,West,270,0.0,0.0,27,0.00,,,0.00,WSDL version 423,2013-03-28 00:12:00,
2013-03-27 19:17:00,50.9,18.1,30.21,West,270,0.0,0.0,27,0.00,,,0.00,WSDL version 423,2013-03-28 00:17:00,
2013-03-27 19:18:00,50.8,18.5,30.21,West,270,0.0,0.0,30,0.00,,,0.00,WSDL version 423,2013-03-28 00:18:00,
2013-03-27 19:19:00,50.7,19.2,30.21,West,270,0.0,0.0,30,0.00,,,0.00,WSDL version 423,2013-03-28 00:19:00,
2013-03-27 19:22:00,50.5,20.2,30.21,SSW,203,0.0,1.1,30,0.00,,,0.00,WSDL version 423,2013-03-28 00:22:00,
2013-03-27 19:23:00,50.4,20.2,30.21,SSW,203,0.0,1.1,30,0.00,,,0.00,WSDL version 423,2013-03-28 00:23:00,
2013-03-27 19:26:00,50.3,20.0,30.21,SSW,203,0.0,1.1,30,0.00,,,0.00,WSDL version 423,2013-03-28 00:26:00,
2013-03-27 19:29:00,50.1,19.9,30.21,SSW,203,0.0,1.1,30,0.00,,,0.00,WSDL version 423,2013-03-28 00:29:00,
2013-03-27 19:31:00,50.0,19.8,30.21,SSW,203,0.0,0.0,30,0.00,,,0.00,WSDL version 423,2013-03-28 00:31:00,
2013-03-27 19:32:00,50.0,19.8,30.21,SSW,203,0.0,0.0,30,0.00,,,0.00,WSDL version 423,2013-03-28 00:32:00,
2013-03-27 19:34:00,50.0,19.8,30.21,SSW,203,0.0,0.0,30,0.00,,,0.00,WSDL version 423,2013-03-28 00:34:00,
2013-03-27 19:36:00,50.0,19.8,30.21,SSW,203,0.0,0.0,30,0.00,,,0.00,WSDL version 423,2013-03-28 00:36:00,
2013-03-27 19:38:00,50.0,19.8,30.21,SSW,203,0.0,0.0,30,0.00,,,0.00,WSDL version 423,2013-03-28 00:38:00,
2013-03-27 19:40:00,50.0,19.8,30.21,SSW,203,0.0,0.0,30,0.00,,,0.00,WSDL version 423,2013-03-28 00:40:00,
2013-03-27 19:41:00,49.9,19.7,30.21,SSW,203,0.0,0.0,30,0.00,,,0.00,WSDL version 423,2013-03-28 00:41:00,
2013-03-27 19:43:00,49.9,19.7,30.21,SSW,203,0.0,0.0,30,0.00,,,0.00,WSDL version 423,2013-03-28 00:43:00,
2013-03-27 19:45:00,49.8,19.6,30.21,SSW,203,0.0,0.0,30,0.00,,,0.00,WSDL version 423,2013-03-28 00:45:00,
2013-03-27 19:46:00,49.8,19.6,30.21,SSW,203,0.0,0.0,30,0.00,,,0.00,WSDL version 423,2013-03-28 00:46:00,
2013-03-27 19:50:00,49.8,19.6,30.21,SSW,203,0.0,0.0,30,0.00,,,0.00,WSDL version 423,2013-03-28 00:50:00,
2013-03-27 19:51:00,49.8,20.0,30.21,SSW,203,0.0,0.0,33,0.00,,,0.00,WSDL version 423,2013-03-28 00:51:00,
2013-03-27 19:53:00,49.8,20.7,30.21,SSW,203,0.0,0.0,33,0.00,,,0.00,WSDL version 423,2013-03-28 00:53:00,
2013-03-27 19:56:00,49.8,21.9,30.21,SSW,203,0.0,0.0,33,0.00,,,0.00,WSDL version 423,2013-03-28 00:56:00,
2013-03-27 19:57:00,49.8,21.9,30.21,SSW,203,0.0,0.0,33,0.00,,,0.00,WSDL version 423,2013-03-28 00:57:00,
2013-03-27 20:00:00,49.9,22.0,30.21,SSW,203,0.0,0.0,33,0.00,,,0.00,WSDL version 423,2013-03-28 01:00:00,
2013-03-27 20:01:00,50.0,22.0,30.21,SSW,203,0.0,0.0,33,0.00,,,0.00,WSDL version 423,2013-03-28 01:01:00,
2013-03-27 20:05:00,49.9,21.9,30.21,SSW,203,0.0,0.0,33,0.00,,,0.00,WSDL version 423,2013-03-28 01:05:00,
2013-03-27 20:06:00,49.8,21.9,30.21,SSW,203,0.0,0.0,33,0.00,,,0.00,WSDL version 423,2013-03-28 01:06:00,
2013-03-27 20:07:00,49.8,21.9,30.21,SSW,203,0.0,0.0,33,0.00,,,0.00,WSDL version 423,2013-03-28 01:07:00,
2013-03-27 20:09:00,49.8,21.9,30.21,SSW,203,0.0,0.0,33,0.00,,,0.00,WSDL version 423,2013-03-28 01:09:00,
2013-03-27 20:10:00,49.8,21.9,30.21,SSW,203,0.0,0.0,33,0.00,,,0.00,WSDL version 423,2013-03-28 01:10:00,
2013-03-27 20:12:00,49.8,21.9,30.21,SSW,203,0.0,0.0,33,0.00,,,0.00,WSDL version 423,2013-03-28 01:12:00,
2013-03-27 20:15:00,49.8,21.9,30.21,SSW,203,0.0,0.0,33,0.00,,,0.00,WSDL version 423,2013-03-28 01:15:00,
2013-03-27 20:16:00,49.8,21.9,30.21,SSW,203,0.0,0.0,33,0.00,,,0.00,WSDL version 423,2013-03-28 01:16:00,
2013-03-27 20:20:00,49.8,21.9,30.21,SSW,203,0.0,0.9,33,0.00,,,0.00,WSDL version 423,2013-03-28 01:20:00,
2013-03-27 20:21:00,49.8,21.9,30.21,SSW,203,0.0,0.9,33,0.00,,,0.00,WSDL version 423,2013-03-28 01:21:00,
2013-03-27 20:23:00,49.8,21.9,30.21,SSW,203,0.0,0.9,33,0.00,,,0.00,WSDL version 423,2013-03-28 01:23:00,
2013-03-27 20:26:00,49.7,21.8,30.21,SSW,203,0.0,0.9,33,0.00,,,0.00,WSDL version 423,2013-03-28 01:26:00,
2013-03-27 20:28:00,49.6,21.7,30.21,SSW,203,0.0,0.0,33,0.00,,,0.00,WSDL version 423,2013-03-28 01:28:00,
2013-03-27 20:31:00,49.5,21.6,30.21,SSW,203,0.0,0.0,33,0.00,,,0.00,WSDL version 423,2013-03-28 01:31:00,
2013-03-27 20:32:00,49.4,21.5,30.21,SSW,203,0.0,0.0,33,0.00,,,0.00,WSDL version 423,2013-03-28 01:32:00,
2013-03-27 20:36:00,49.2,21.3,30.21,SSW,203,0.0,0.0,33,0.00,,,0.00,WSDL version 423,2013-03-28 01:36:00,
2013-03-27 20:37:00,49.2,21.3,30.21,SSW,203,0.0,0.0,33,0.00,,,0.00,WSDL version 423,2013-03-28 01:37:00,
2013-03-27 20:42:00,48.9,21.3,30.21,SSW,203,0.0,0.0,34,0.00,,,0.00,WSDL version 423,2013-03-28 01:42:00,
2013-03-27 20:47:00,48.4,21.3,30.21,SSW,203,0.0,0.0,34,0.00,,,0.00,WSDL version 423,2013-03-28 01:47:00,
2013-03-27 20:48:00,48.3,21.2,30.21,SSW,203,0.0,0.0,34,0.00,,,0.00,WSDL version 423,2013-03-28 01:48:00,
2013-03-27 20:51:00,48.1,21.1,30.21,SSW,203,0.0,0.0,34,0.00,,,0.00,WSDL version 423,2013-03-28 01:51:00,
2013-03-27 20:53:00,48.0,21.0,30.21,SSW,203,0.0,0.0,34,0.00,,,0.00,WSDL version 423,2013-03-28 01:53:00,
2013-03-27 20:57:00,47.9,20.8,30.21,SSW,203,0.0,0.0,34,0.00,,,0.00,WSDL version 423,2013-03-28 01:57:00,
2013-03-27 20:59:00,47.8,20.8,30.21,SSW,203,0.0,0.0,34,0.00,,,0.00,WSDL version 423,2013-03-28 01:59:00,
2013-03-27 21:01:00,47.8,20.8,30.21,SSW,203,0.0,0.0,34,0.00,,,0.00,WSDL version 423,2013-03-28 02:01:00,
2013-03-27 21:04:00,47.8,20.8,30.21,SSW,203,0.0,0.0,34,0.00,,,0.00,WSDL version 423,2013-03-28 02:04:00,
2013-03-27 21:05:00,47.8,20.8,30.21,SSW,203,0.0,0.0,34,0.00,,,0.00,WSDL version 423,2013-03-28 02:05:00,
2013-03-27 21:07:00,47.8,20.8,30.21,SSW,203,0.0,0.0,34,0.00,,,0.00,WSDL version 423,2013-03-28 02:07:00,
2013-03-27 21:12:00,47.9,21.4,30.21,SSW,203,0.0,0.0,35,0.00,,,0.00,WSDL version 423,2013-03-28 02:12:00,
2013-03-27 21:13:00,47.9,21.6,30.21,SSW,203,0.0,0.0,35,0.00,,,0.00,WSDL version 423,2013-03-28 02:13:00,
2013-03-27 21:17:00,48.0,22.1,30.21,SSW,203,0.0,0.0,36,0.00,,,0.00,WSDL version 423,2013-03-28 02:17:00,
2013-03-27 21:19:00,48.1,22.4,30.21,SSW,203,0.0,0.0,36,0.00,,,0.00,WSDL version 423,2013-03-28 02:19:00,
2013-03-27 21:20:00,48.2,22.5,30.21,SSW,203,0.0,0.0,36,0.00,,,0.00,WSDL version 423,2013-03-28 02:20:00,
2013-03-27 21:25:00,48.0,22.4,30.21,SSW,203,0.0,0.0,37,0.00,,,0.00,WSDL version 423,2013-03-28 02:25:00,
2013-03-27 21:26:00,47.9,22.5,30.21,SSW,203,0.0,0.0,37,0.00,,,0.00,WSDL version 423,2013-03-28 02:26:00,
2013-03-27 21:30:00,47.4,22.4,30.21,SSW,203,0.0,0.0,37,0.00,,,0.00,WSDL version 423,2013-03-28 02:30:00,
2013-03-27 21:32:00,47.2,22.2,30.21,SSW,203,0.0,0.0,37,0.00,,,0.00,WSDL version 423,2013-03-28 02:32:00,
2013-03-27 21:34:00,47.0,22.1,30.21,SSW,203,0.0,0.0,37,0.00,,,0.00,WSDL version 423,2013-03-28 02:34:00,
2013-03-27 21:35:00,46.9,22.2,30.21,SSW,203,0.0,0.0,38,0.00,,,0.00,WSDL version 423,2013-03-28 02:35:00,
2013-03-27 21:38:00,46.7,22.2,30.21,SSW,203,0.0,0.0,38,0.00,,,0.00,WSDL version 423,2013-03-28 02:38:00,
2013-03-27 21:40:00,46.5,22.2,30.21,SSW,203,0.0,0.0,38,0.00,,,0.00,WSDL version 423,2013-03-28 02:40:00,
2013-03-27 21:41:00,46.5,22.2,30.21,SSW,203,0.0,0.0,38,0.00,,,0.00,WSDL version 423,2013-03-28 02:41:00,
2013-03-27 21:45:00,46.5,22.5,30.21,SSW,203,0.0,0.0,39,0.00,,,0.00,WSDL version 423,2013-03-28 02:45:00,
2013-03-27 21:46:00,46.5,22.6,30.21,SSW,203,0.0,0.0,39,0.00,,,0.00,WSDL version 423,2013-03-28 02:46:00,
2013-03-27 21:51:00,46.7,23.0,30.21,SSW,203,0.0,0.0,40,0.00,,,0.00,WSDL version 423,2013-03-28 02:51:00,
2013-03-27 21:53:00,46.7,23.2,30.21,SSW,203,0.0,0.0,40,0.00,,,0.00,WSDL version 423,2013-03-28 02:53:00,
2013-03-27 21:54:00,46.7,23.3,30.21,SSW,203,0.0,0.0,40,0.00,,,0.00,WSDL version 423,2013-03-28 02:54:00,
2013-03-27 21:57:00,46.8,23.6,30.21,SSW,203,0.0,1.1,40,0.00,,,0.00,WSDL version 423,2013-03-28 02:57:00,
2013-03-27 21:58:00,46.9,23.6,30.21,SSW,203,0.5,1.3,40,0.00,,,0.00,WSDL version 423,2013-03-28 02:58:00,
2013-03-27 22:02:00,46.9,23.9,30.24,SSW,203,0.1,1.3,41,0.00,,,0.00,WSDL version 423,2013-03-28 03:02:00,
2013-03-27 22:03:00,46.8,24.2,30.24,SSW,203,0.0,1.3,42,0.00,,,0.00,WSDL version 423,2013-03-28 03:03:00,
2013-03-27 22:06:00,46.6,24.3,30.24,SSW,203,0.0,1.3,41,0.00,,,0.00,WSDL version 423,2013-03-28 03:06:00,
2013-03-27 22:08:00,46.5,23.9,30.24,SSW,203,0.0,1.3,41,0.00,,,0.00,WSDL version 423,2013-03-28 03:08:00,
2013-03-27 22:11:00,46.4,23.9,30.24,SSW,203,0.0,0.0,41,0.00,,,0.00,WSDL version 423,2013-03-28 03:11:00,
2013-03-27 22:12:00,46.4,23.9,30.24,SSW,203,0.0,0.0,41,0.00,,,0.00,WSDL version 423,2013-03-28 03:12:00,
2013-03-27 22:14:00,46.3,23.7,30.24,SSW,203,0.0,0.0,41,0.00,,,0.00,WSDL version 423,2013-03-28 03:14:00,
2013-03-27 22:15:00,46.3,23.7,30.24,SSW,203,0.0,0.0,41,0.00,,,0.00,WSDL version 423,2013-03-28 03:15:00,
2013-03-27 22:16:00,46.3,23.8,30.21,SSW,203,0.0,0.0,41,0.00,,,0.00,WSDL version 423,2013-03-28 03:16:00,
2013-03-27 22:17:00,46.2,23.9,30.21,SSW,203,0.0,0.0,42,0.00,,,0.00,WSDL version 423,2013-03-28 03:17:00,
2013-03-27 22:20:00,46.2,24.5,30.21,SSW,203,0.0,0.0,42,0.00,,,0.00,WSDL version 423,2013-03-28 03:20:00,
2013-03-27 22:22:00,46.1,24.7,30.21,SSW,203,0.0,0.0,43,0.00,,,0.00,WSDL version 423,2013-03-28 03:22:00,
2013-03-27 22:25:00,46.0,24.6,30.21,SSW,203,0.0,0.0,42,0.00,,,0.00,WSDL version 423,2013-03-28 03:25:00,
2013-03-27 22:26:00,46.0,24.5,30.21,SSW,203,0.0,0.0,42,0.00,,,0.00,WSDL version 423,2013-03-28 03:26:00,
2013-03-27 22:27:00,46.0,24.4,30.21,SSW,203,0.0,0.0,42,0.00,,,0.00,WSDL version 423,2013-03-28 03:27:00,
2013-03-27 22:28:00,46.0,24.4,30.21,SSW,203,0.0,0.0,42,0.00,,,0.00,WSDL version 423,2013-03-28 03:28:00,
2013-03-27 22:31:00,46.0,24.7,30.21,SSW,203,0.0,0.0,43,0.00,,,0.00,WSDL version 423,2013-03-28 03:31:00,
2013-03-27 22:34:00,46.1,25.0,30.21,SSW,203,0.0,0.0,43,0.00,,,0.00,WSDL version 423,2013-03-28 03:34:00,
2013-03-27 22:35:00,46.1,25.0,30.21,SSW,203,0.0,0.0,43,0.00,,,0.00,WSDL version 423,2013-03-28 03:35:00,
2013-03-27 22:36:00,46.1,25.1,30.21,SSW,203,0.0,0.0,43,0.00,,,0.00,WSDL version 423,2013-03-28 03:36:00,
2013-03-27 22:37:00,46.2,25.1,30.21,SSW,203,0.0,0.0,43,0.00,,,0.00,WSDL version 423,2013-03-28 03:37:00,
2013-03-27 22:41:00,46.1,25.0,30.21,SSW,203,0.0,0.0,43,0.00,,,0.00,WSDL version 423,2013-03-28 03:41:00,
2013-03-27 22:42:00,46.1,25.0,30.21,SSW,203,0.0,0.0,43,0.00,,,0.00,WSDL version 423,2013-03-28 03:42:00,
2013-03-27 22:46:00,46.0,24.9,30.21,SSW,203,0.0,0.0,43,0.00,,,0.00,WSDL version 423,2013-03-28 03:46:00,
2013-03-27 22:48:00,46.1,25.0,30.21,SSW,203,0.0,0.0,43,0.00,,,0.00,WSDL version 423,2013-03-28 03:48:00,
2013-03-27 22:52:00,46.3,25.2,30.21,SSW,203,0.0,0.0,43,0.00,,,0.00,WSDL version 423,2013-03-28 03:52:00,
2013-03-27 22:55:00,46.4,25.3,30.21,SSW,203,0.0,0.0,43,0.00,,,0.00,WSDL version 423,2013-03-28 03:55:00,
2013-03-27 22:56:00,46.4,25.3,30.21,SSW,203,0.0,0.0,43,0.00,,,0.00,WSDL version 423,2013-03-28 03:56:00,
2013-03-27 22:59:00,46.5,25.4,30.21,SSW,203,0.0,0.0,43,0.00,,,0.00,WSDL version 423,2013-03-28 03:59:00,
2013-03-27 23:00:00,46.5,25.4,30.21,SSW,203,0.0,0.0,43,0.00,,,0.00,WSDL version 423,2013-03-28 04:00:00,
2013-03-27 23:01:00,46.6,25.4,30.21,SSW,203,0.0,0.0,43,0.00,,,0.00,WSDL version 423,2013-03-28 04:01:00,
2013-03-27 23:04:00,46.6,25.3,30.21,SSW,203,0.0,0.0,42,0.00,,,0.00,WSDL version 423,2013-03-28 04:04:00,
2013-03-27 23:07:00,46.6,25.0,30.21,SSW,203,0.0,0.0,42,0.00,,,0.00,WSDL version 423,2013-03-28 04:07:00,
2013-03-27 23:09:00,46.7,25.0,30.21,SSW,203,0.0,0.0,42,0.00,,,0.00,WSDL version 423,2013-03-28 04:09:00,
2013-03-27 23:10:00,46.7,25.0,30.21,SSW,203,0.0,0.0,42,0.00,,,0.00,WSDL version 423,2013-03-28 04:10:00,
2013-03-27 23:15:00,46.7,24.8,30.21,SSW,203,0.0,0.0,42,0.00,,,0.00,WSDL version 423,2013-03-28 04:15:00,
2013-03-27 23:17:00,46.6,25.0,30.24,SSW,203,0.0,0.0,43,0.00,,,0.00,WSDL version 423,2013-03-28 04:17:00,
2013-03-27 23:19:00,46.6,25.2,30.24,SSW,203,0.0,0.0,43,0.00,,,0.00,WSDL version 423,2013-03-28 04:19:00,
2013-03-27 23:21:00,46.5,25.4,30.24,SSW,203,0.0,0.0,43,0.00,,,0.00,WSDL version 423,2013-03-28 04:21:00,
2013-03-27 23:22:00,46.4,25.3,30.24,SSW,203,0.0,0.0,43,0.00,,,0.00,WSDL version 423,2013-03-28 04:22:00,
2013-03-27 23:23:00,46.4,25.3,30.24,SSW,203,0.0,0.0,43,0.00,,,0.00,WSDL version 423,2013-03-28 04:23:00,
2013-03-27 23:24:00,46.4,25.3,30.24,SSW,203,0.0,0.0,43,0.00,,,0.00,WSDL version 423,2013-03-28 04:24:00,
2013-03-27 23:26:00,46.4,25.3,30.24,SSW,203,0.0,0.0,43,0.00,,,0.00,WSDL version 423,2013-03-28 04:26:00,
2013-03-27 23:29:00,46.4,25.3,30.24,SSW,203,0.0,0.0,43,0.00,,,0.00,WSDL version 423,2013-03-28 04:29:00,
2013-03-27 23:31:00,46.4,25.3,30.21,SSW,203,0.0,0.0,43,0.00,,,0.00,WSDL version 423,2013-03-28 04:31:00,
2013-03-27 23:32:00,46.4,25.3,30.21,SSW,203,0.0,0.0,43,0.00,,,0.00,WSDL version 423,2013-03-28 04:32:00,
2013-03-27 23:33:00,46.4,25.3,30.21,SSW,203,0.0,0.0,43,0.00,,,0.00,WSDL version 423,2013-03-28 04:33:00,
2013-03-27 23:39:00,46.1,25.0,30.21,SSW,203,0.0,0.0,43,0.00,,,0.00,WSDL version 423,2013-03-28 04:39:00,
2013-03-27 23:40:00,46.1,25.1,30.21,SSW,203,0.0,0.0,44,0.00,,,0.00,WSDL version 423,2013-03-28 04:40:00,
2013-03-27 23:44:00,45.9,25.1,30.21,SSW,203,0.0,0.0,44,0.00,,,0.00,WSDL version 423,2013-03-28 04:44:00,
2013-03-27 23:45:00,45.8,25.1,30.21,SSW,203,0.0,0.0,44,0.00,,,0.00,WSDL version 423,2013-03-28 04:45:00,
2013-03-27 23:48:00,45.8,25.3,30.21,SSW,203,0.0,0.0,44,0.00,,,0.00,WSDL version 423,2013-03-28 04:48:00,
2013-03-27 23:49:00,45.8,25.3,30.21,SSW,203,0.0,0.0,44,0.00,,,0.00,WSDL version 423,2013-03-28 04:49:00,
2013-03-27 23:50:00,45.9,25.3,30.21,SSW,203,0.0,0.0,44,0.00,,,0.00,WSDL version 423,2013-03-28 04:50:00,
2013-03-27 23:53:00,46.0,25.4,30.21,SSW,203,0.0,0.0,44,0.00,,,0.00,WSDL version 423,2013-03-28 04:53:00,
2013-03-27 23:55:00,46.0,25.5,30.21,SSW,203,0.0,0.0,44,0.00,,,0.00,WSDL version 423,2013-03-28 04:55:00,